Regional Weather Roundup
Issued by NWS

Home | Current Version | Previous Version | Text Only | Print | Product List | Glossary Off
Versions: 1 2 3 4 5 6 7 8 9 10 11 12 13 14 15 16 17 18 19 20 21 22 23 24 25 26 27 28 29 30 31 32 33 34 35 36 37 38 39 40 41 42 43 44 45 46 47 48 49 50

000
ASUS43 KLOT 260510
RWRIL

ILLINOIS REGIONAL WEATHER ROUNDUP
NATIONAL WEATHER SERVICE CHICAGO/ROMEOVILLE IL
1200 AM CDT SAT JUL 26 2014

NOTE: "FAIR" INDICATES FEW OR NO CLOUDS BELOW 12,000 FEET WITH NO
SIGNIFICANT WEATHER AND/OR OBSTRUCTIONS TO VISIBILITY.

* THESE STATIONS ARE NOT UNDER NWS QUALITY CONTROL. THEY ALSO MAY NOT
  REPORT WEATHER SUCH AS PRECIPITATION OR FOG.

ILZ001-002-007-009-015-016-024-260600-
NORTHWEST ILLINOIS

CITY           SKY/WX    TMP DP  RH WIND       PRES   REMARKS
MOLINE         CLOUDY    69  62  78 SE9       29.87F
STERLING*      CLOUDY    66  61  82 S6        29.91S
SAVANNA*       CLOUDY    68  61  78 SE8       29.89S
$$

ILZ003-004-008-010-011-017-018-260600-
NORTH CENTRAL ILLINOIS

CITY           SKY/WX    TMP DP  RH WIND       PRES   REMARKS
ROCKFORD       CLOUDY    68  60  75 S6        29.93S
FREEPORT*      CLOUDY    64  59  86 SE7       29.93R
ROCHELLE*      CLOUDY    67  59  76 S8        29.92S
PERU*          CLOUDY    68  60  76 S9        29.92S
$$

ILZ005-006-012>014-019>023-260600-
NORTHEAST ILLINOIS

CITY           SKY/WX    TMP DP  RH WIND       PRES   REMARKS
CHICAGO-OHARE  MOCLDY    70  57  63 SW8       29.92S
CHICAGO-MIDWAY CLOUDY    72  60  66 SW9       29.92F
AURORA         CLOUDY    68  59  73 S6        29.93S
LANSING*       CLOUDY    67  59  74 S6        29.94S
JOLIET*        CLOUDY    69  58  68 S9        29.94S
WAUKEGAN       CLOUDY    67  59  75 SW6       29.91S
DUPAGE AIRPORT CLOUDY    69  60  73 S9        29.92S
KANKAKEE*      CLOUDY    68  61  77 S7        29.95S
WHEELING       MOCLDY    71  59  65 SW7       29.93S
MORRIS*        CLOUDY    68  61  76 S5        29.93S
ROMEOVILLE*    CLOUDY    69  58  69 SW10      29.93S
NORTHERLY ISL    N/A     70  58  65 S7          N/A
$$

LMZ740>746-260600-
SOUTHERN LAKE MICHIGAN

STATION/POSITION SKY/WX   TEMP    WIND        PRES    VSBY  WAVE
                          AIR SEA DIR/SP/G                  HT/PER
                          (F)     (DEG/KT/KT) (MB)    (MI)  (FT/S)
SOUTHERN BUOY              64 61  180/  8/ 10 1013.2F         1
WAUKEGAN HARBOR            66     180/  4/  4   N/A
HARRISON CRIB              69     190/ 14/ 16   N/A
BURNHAM HARBOR             70     190/  7/  9   N/A
CALUMET HARBOR             70     180/  6/  9 1012.2F
MICHIGAN CITY              66     110/  4/  6   N/A
MICHIGAN CITY 6N           67 68  160/  8/ 10   N/A           1
ST. JOSEPH                 67 66  130/  8/ 10   N/A           1/ 3
$$

ILZ025>027-034>036-040-047-049-050-058-095>099-260600-
WEST-CENTRAL ILLINOIS

CITY           SKY/WX    TMP DP  RH WIND       PRES   REMARKS
QUINCY         PTCLDY    71  64  78 SE8       29.85S
GALESBURG*     CLOUDY    68  63  84 SE8       29.89S
MACOMB*        PTCLDY    67  63  87 SE8       29.90S
JACKSONVILLE*  PTCLDY    69  63  80 SE12      29.90S
PITTSFIELD*    CLEAR     69  64  82 SE6       29.88S
$$

ILZ028>032-037-038-041>044-048-051>054-059>061-260600-
CENTRAL ILLINOIS

CITY           SKY/WX    TMP DP  RH WIND       PRES   REMARKS
PONTIAC        MOCLDY    70  63  78 S8        29.93S
DECATUR        CLOUDY    69  62  78 S9        29.94F
PEORIA         CLOUDY    70  61  73 SE12      29.91S
LACON*         CLOUDY    68  59  74 SE9       29.90F
LINCOLN*       CLOUDY    69  61  76 S10       29.90S
SPRINGFIELD    PTCLDY    70  62  76 SE9       29.91F
TAYLORVILLE    CLOUDY    66  61  82 SE13      29.93S
$$

ILZ033-039-045-046-055>057-062-063-260600-
EAST-CENTRAL ILLINOIS

CITY           SKY/WX    TMP DP  RH WIND       PRES   REMARKS
CHAMPAIGN      CLOUDY    68  62  81 SE9       29.96F
DANVILLE*      CLOUDY    67  61  80 S6        29.94F
RANTOUL*       MOCLDY    68  61  78 S7        29.96S
MATTOON        CLOUDY    67  61  81 S8        29.96F
PARIS*         CLOUDY    65  63  91 SE3       29.99S
$$

ILZ079-100>102-260600-
SOUTHWEST ILLINOIS

CITY           SKY/WX    TMP DP  RH WIND       PRES   REMARKS
ALTON          CLEAR     67  67 100 SE8       29.92S
BELLEVILLE     CLEAR     66  65  97 E7        29.93S
CAHOKIA*       CLEAR     70  64  81 S6        29.92S
SPARTA*        CLEAR     64  63  94 SE5       29.96S
$$

ILZ064>066-069>071-074>076-080>082-084>086-088>090-092>094-260600-
SOUTH-CENTRAL ILLINOIS

CITY           SKY/WX    TMP DP  RH WIND       PRES   REMARKS
CARBONDALE     CLEAR     65  62  90 SE5       29.97R
CAIRO*         CLEAR     70  64  82 S5        29.96S
EFFINGHAM*     CLOUDY    66  60  81 SE7       29.97F
MARION         CLEAR     66  63  88 SE5       29.99R
MT. VERNON     CLEAR     64  57  77 E3        29.99S
CENTRALIA*     CLEAR     65  61  85 SE7       29.97S
SALEM*         CLEAR     68  64  86 SE7       29.97F
METROPOLIS*    CLEAR     64  63  95 CALM      29.98R FOG
$$

ILZ067-068-072-073-078-083-087-091-260600-
SOUTHEAST ILLINOIS

CITY           SKY/WX    TMP DP  RH WIND       PRES   REMARKS
LAWRENCEVILLE  CLEAR     63  61  93 E5        30.01R
FLORA*         CLEAR     62  61  97 SE6       29.99F
FAIRFIELD*     CLEAR     63  63 100 CALM      30.00R
HARRISBURG*    CLEAR     64  63  98 CALM      30.00R
ROBINSON*      CLOUDY    62  62  97 S5        30.00F
CARMI*         CLEAR     63  63 100 CALM      30.00R FOG
$$

ABBREVIATIONS USED IN REMARKS
   TC - TEMPERATURE IN CELSIUS
  WCI - WIND CHILL INDEX
   HX - HEAT INDEX
  VSB - VISIBILITY
$$




USA.gov is the U.S. government's official web portal to all federal, state and local government web resources and services.